| time (UTC) | temp F | wind direction | speed MPH | gust MPH | rain 1hr in | rain 24hr in | rain mn in | humidity % | barometer mb |
| 20260903060047 | 55 | 197 | 2.0 | 6.0 | 0.11 | 0.22 | 0.22 | 82 | 1008.5 |
| 20260903054550 | 56 | 194 | 5.0 | 14.0 | 0.07 | 0.17 | 0.17 | 83 | 1008.4 |
| 20260903053049 | 57 | 243 | 14.0 | 20.0 | 0.07 | 0.15 | 0.15 | 84 | 1008.4 |
| 20260903051544 | 57 | 144 | 4.0 | 9.0 | 0.07 | 0.13 | 0.13 | 82 | 1007.6 |
| 20260903050043 | 57 | 139 | 3.0 | 8.0 | 0.07 | 0.11 | 0.11 | 82 | 1007.6 |
| 20260903044542 | 57 | 131 | 2.0 | 6.0 | 0.07 | 0.10 | 0.10 | 82 | 1007.8 |
| 20260903043041 | 57 | 113 | 1.0 | 5.0 | 0.06 | 0.08 | 0.08 | 84 | 1007.9 |
| 20260903041641 | 56 | 127 | 0.0 | 3.0 | 0.06 | 0.06 | 0.06 | 84 | 1007.9 |
| 20260903040039 | 57 | 140 | 1.0 | 6.0 | 0.04 | 0.04 | 0.04 | 81 | 1007.9 |
| 20260903034546 | 58 | 141 | 3.0 | 5.0 | 0.03 | 0.03 | 0.03 | 80 | 1007.9 |
| 20260903033041 | 59 | 170 | 4.0 | 7.0 | 0.01 | 0.01 | 0.01 | 76 | 1007.9 |
| 20260903031539 | 59 | 158 | 3.0 | 5.0 | 0.00 | 0.00 | 0.00 | 74 | 1007.7 |
| 20260903030034 | 60 | 208 | 3.0 | 7.0 | 0.00 | 0.00 | 0.00 | 72 | 1007.6 |
| 20260903024533 | 61 | 210 | 4.0 | 9.0 | 0.00 | 0.00 | 0.00 | 66 | 1007.3 |
| 20260903023036 | 62 | 188 | 7.0 | 13.0 | 0.00 | 0.00 | 0.00 | 61 | 1007.2 |
| 20260903021531 | 63 | 196 | 7.0 | 14.0 | 0.00 | 0.00 | 0.00 | 58 | 1007.2 |
| 20260903020031 | 64 | 202 | 9.0 | 16.0 | 0.00 | 0.00 | 0.00 | 56 | 1007.2 |
| 20260903014544 | 65 | 193 | 13.0 | 18.0 | 0.00 | 0.00 | 0.00 | 52 | 1007.1 |
| 20260903013034 | 64 | 198 | 12.0 | 18.0 | 0.00 | 0.00 | 0.00 | 55 | 1007.1 |
| 20260903011528 | 64 | 195 | 15.0 | 22.0 | 0.00 | 0.00 | 0.00 | 55 | 1007.1 |
| 20260903010028 | 66 | 202 | 14.0 | 21.0 | 0.00 | 0.00 | 0.00 | 52 | 1006.9 |
| 20260903004540 | 65 | 194 | 13.0 | 20.0 | 0.00 | 0.00 | 0.00 | 52 | 1006.9 |
| 20260903003031 | 66 | 233 | 10.0 | 19.0 | 0.00 | 0.00 | 0.00 | 53 | 1006.8 |
| 20260903001526 | 66 | 196 | 11.0 | 20.0 | 0.00 | 0.00 | 0.00 | 53 | 1006.5 |
| 20260903000024 | 67 | 243 | 10.0 | 18.0 | 0.00 | 0.00 | 0.00 | 55 | 1006.4 |
| 20260902234523 | 69 | 250 | 11.0 | 27.0 | 0.00 | 0.00 | 0.00 | 44 | 1006.2 |
| 20260902233024 | 70 | 248 | 13.0 | 21.0 | 0.00 | 0.00 | 0.00 | 42 | 1006.2 |
| 20260902231521 | 71 | 259 | 15.0 | 26.0 | 0.00 | 0.00 | 0.00 | 39 | 1006.0 |
| 20260902230021 | 71 | 241 | 15.0 | 31.0 | 0.00 | 0.00 | 0.00 | 39 | 1005.5 |
| 20260902224620 | 72 | 263 | 22.0 | 30.0 | 0.00 | 0.00 | 0.00 | 39 | 1005.2 |
| 20260902223020 | 73 | 251 | 22.0 | 31.0 | 0.00 | 0.00 | 0.00 | 35 | 1005.1 |
| 20260902221523 | 75 | 230 | 16.0 | 25.0 | 0.00 | 0.00 | 0.00 | 30 | 1005.1 |
| 20260902220018 | 76 | 221 | 14.0 | 22.0 | 0.00 | 0.00 | 0.00 | 28 | 1004.4 |
| 20260902214525 | 76 | 231 | 9.0 | 20.0 | 0.00 | 0.00 | 0.00 | 28 | 1004.2 |
| 20260902213024 | 77 | 110 | 6.0 | 13.0 | 0.00 | 0.00 | 0.00 | 29 | 1003.9 |
| 20260902211509 | 75 | 100 | 4.0 | 9.0 | 0.00 | 0.00 | 0.00 | 35 | 1004.1 |
| 20260902210015 | 75 | 146 | 4.0 | 12.0 | 0.00 | 0.00 | 0.00 | 35 | 1004.3 |
| 20260902204504 | 74 | 6 | 4.0 | 9.0 | 0.00 | 0.00 | 0.00 | 37 | 1004.3 |
| 20260902203003 | 74 | 27 | 3.0 | 11.0 | 0.00 | 0.00 | 0.00 | 38 | 1004.5 |
| 20260902201603 | 73 | 49 | 9.0 | 13.0 | 0.00 | 0.00 | 0.00 | 39 | 1004.7 |
| 20260902200059 | 72 | 44 | 4.0 | 9.0 | 0.00 | 0.00 | 0.00 | 40 | 1005.0 |
| 20260902194555 | 71 | 23 | 3.0 | 6.0 | 0.00 | 0.00 | 0.00 | 41 | 1005.4 |
| 20260902193056 | 71 | 356 | 3.0 | 7.0 | 0.00 | 0.00 | 0.00 | 41 | 1005.5 |
| 20260902191555 | 71 | 340 | 3.0 | 5.0 | 0.00 | 0.00 | 0.00 | 41 | 1005.7 |
| 20260902190051 | 71 | 318 | 0.0 | 8.0 | 0.00 | 0.00 | 0.00 | 42 | 1005.9 |
| 20260902184557 | 72 | 43 | 0.0 | 4.0 | 0.00 | 0.00 | 0.00 | 42 | 1006.1 |
| 20260902183046 | 71 | 111 | 0.0 | 6.0 | 0.00 | 0.00 | 0.00 | 42 | 1006.3 |
| 20260902181547 | 70 | 284 | 3.0 | 7.0 | 0.00 | 0.00 | 0.00 | 43 | 1006.5 |
| 20260902180040 | 69 | 291 | 1.0 | 6.0 | 0.00 | 0.00 | 0.00 | 44 | 1006.6 |
| 20260902174538 | 68 | 279 | 0.0 | 5.0 | 0.00 | 0.00 | 0.00 | 45 | 1006.9 |
| 20260902173036 | 68 | 187 | 2.0 | 5.0 | 0.00 | 0.00 | 0.00 | 46 | 1007.0 |
| 20260902171534 | 68 | 357 | 3.0 | 5.0 | 0.00 | 0.00 | 0.00 | 47 | 1007.2 |
| 20260902170031 | 66 | 30 | 3.0 | 6.0 | 0.00 | 0.00 | 0.00 | 49 | 1007.3 |
| 20260902164530 | 66 | 248 | 5.0 | 7.0 | 0.00 | 0.00 | 0.00 | 49 | 1007.3 |
| 20260902163028 | 65 | 222 | 2.0 | 6.0 | 0.00 | 0.00 | 0.00 | 51 | 1007.4 |
| 20260902161526 | 65 | 302 | 1.0 | 7.0 | 0.00 | 0.00 | 0.00 | 51 | 1007.4 |
| 20260902160024 | 65 | 229 | 3.0 | 6.0 | 0.00 | 0.00 | 0.00 | 51 | 1007.5 |
| 20260902154526 | 64 | 269 | 6.0 | 10.0 | 0.00 | 0.00 | 0.00 | 52 | 1007.8 |
| 20260902153023 | 63 | 210 | 3.0 | 7.0 | 0.00 | 0.00 | 0.00 | 54 | 1008.0 |
| 20260902151518 | 60 | 156 | 1.0 | 2.0 | 0.00 | 0.00 | 0.00 | 62 | 1008.2 |
| 20260902150018 | 56 | 157 | 0.0 | 0.0 | 0.00 | 0.00 | 0.00 | 66 | 1008.3 |
| 20260902144520 | 55 | 157 | 0.0 | 2.0 | 0.00 | 0.00 | 0.00 | 67 | 1008.5 |
| 20260902143017 | 54 | 186 | 4.0 | 6.0 | 0.00 | 0.00 | 0.00 | 69 | 1008.5 |
| 20260902141516 | 55 | 148 | 2.0 | 4.0 | 0.00 | 0.00 | 0.00 | 68 | 1008.4 |
| 20260902140013 | 54 | 141 | 2.0 | 3.0 | 0.00 | 0.00 | 0.00 | 68 | 1008.5 |
| 20260902134513 | 55 | 193 | 0.0 | 4.0 | 0.00 | 0.00 | 0.00 | 68 | 1008.5 |
| 20260902133012 | 56 | 186 | 2.0 | 3.0 | 0.00 | 0.00 | 0.00 | 66 | 1008.5 |
| 20260902131511 | 56 | 169 | 3.0 | 5.0 | 0.00 | 0.00 | 0.00 | 67 | 1008.5 |
| 20260902130010 | 55 | 165 | 3.0 | 4.0 | 0.00 | 0.00 | 0.00 | 69 | 1008.2 |
| 20260902124509 | 55 | 233 | 1.0 | 3.0 | 0.00 | 0.00 | 0.00 | 68 | 1008.2 |
| 20260902123009 | 55 | 238 | 1.0 | 5.0 | 0.00 | 0.00 | 0.00 | 68 | 1008.2 |
| 20260902121506 | 55 | 203 | 4.0 | 6.0 | 0.00 | 0.00 | 0.00 | 69 | 1008.1 |
| 20260902120007 | 56 | 140 | 2.0 | 3.0 | 0.00 | 0.00 | 0.00 | 67 | 1007.7 |
| 20260902114501 | 57 | 158 | 0.0 | 2.0 | 0.00 | 0.00 | 0.00 | 66 | 1007.6 |
| 20260902113004 | 58 | 158 | 0.0 | 3.0 | 0.00 | 0.00 | 0.00 | 65 | 1007.7 |
| 20260902111606 | 58 | 158 | 1.0 | 3.0 | 0.00 | 0.00 | 0.00 | 66 | 1008.1 |
| 20260902110059 | 58 | 158 | 0.0 | 2.0 | 0.00 | 0.00 | 0.00 | 66 | 1008.4 |
| 20260902104558 | 59 | 153 | 2.0 | 5.0 | 0.00 | 0.00 | 0.00 | 66 | 1008.7 |
| 20260902103056 | 58 | 159 | 4.0 | 7.0 | 0.00 | 0.00 | 0.00 | 66 | 1008.5 |
| 20260902101555 | 57 | 146 | 3.0 | 5.0 | 0.00 | 0.00 | 0.00 | 67 | 1008.2 |
| 20260902100104 | 56 | 149 | 5.0 | 6.0 | 0.00 | 0.00 | 0.00 | 67 | 1008.1 |
| 20260902094551 | 57 | 153 | 1.0 | 4.0 | 0.00 | 0.00 | 0.00 | 66 | 1007.9 |
| 20260902093048 | 58 | 127 | 2.0 | 6.0 | 0.00 | 0.00 | 0.00 | 64 | 1008.0 |
| 20260902091550 | 60 | 176 | 0.0 | 6.0 | 0.00 | 0.00 | 0.00 | 62 | 1008.0 |
| 20260902090043 | 61 | 210 | 2.0 | 9.0 | 0.00 | 0.00 | 0.00 | 61 | 1008.3 |
| 20260902084539 | 61 | 236 | 4.0 | 8.0 | 0.00 | 0.00 | 0.00 | 60 | 1008.4 |
| 20260902083038 | 62 | 207 | 3.0 | 12.0 | 0.00 | 0.00 | 0.00 | 59 | 1007.9 |
| 20260902081538 | 62 | 203 | 7.0 | 13.0 | 0.00 | 0.00 | 0.00 | 59 | 1008.4 |
| 20260902080035 | 62 | 199 | 4.0 | 12.0 | 0.00 | 0.00 | 0.00 | 58 | 1008.3 |
| 20260902074538 | 62 | 202 | 6.0 | 11.0 | 0.00 | 0.00 | 0.00 | 57 | 1008.4 |
| 20260902073032 | 62 | 233 | 7.0 | 16.0 | 0.00 | 0.00 | 0.00 | 57 | 1008.0 |
| 20260902071526 | 63 | 203 | 7.0 | 16.0 | 0.00 | 0.00 | 0.00 | 56 | 1008.1 |
| 20260902070023 | 63 | 221 | 8.0 | 15.0 | 0.00 | 0.00 | 0.00 | 55 | 1007.9 |
| 20260902064522 | 63 | 221 | 5.0 | 12.0 | 0.00 | 0.00 | 0.00 | 55 | 1007.7 |
| 20260902063033 | 64 | 195 | 7.0 | 15.0 | 0.00 | 0.00 | 0.00 | 54 | 1007.4 |
| 20260902061523 | 64 | 203 | 5.0 | 16.0 | 0.00 | 0.00 | 0.00 | 53 | 1007.4 |